Joliet, IL

1:47 AM CDT on June 28, 2017 (GMT -0500)
Joliet Regional

Weather History for KJOT - October, 2013

Change the Weather History Date:

Sunday, October 20, 2013

  Actual Average (KARR) Record (KARR)
Temperature  
Mean Temperature 50 °F -  
Max Temperature 65 °F 58 °F 84 °F (2003)
Min Temperature 34 °F 36 °F 25 °F (2002)
Degree Days  
Heating Degree Days 16    
Moisture  
Dew Point 40 °F    
Average Humidity 72    
Maximum Humidity 97    
Minimum Humidity 35    
Precipitation  
Precipitation 0.02 in - - ()
Sea Level Pressure  
Sea Level Pressure 29.83 in    
Wind  
Wind Speed 4 mph (SSW)    
Max Wind Speed 13 mph    
Max Gust Speed 20 mph    
Visibility 9 miles    
Events Rain    
Averages and records for this station are not official NWS values.
T = Trace of Precipitation, MM = Missing Value Source: NWS Daily Summary

Daily Weather History Graph

Daily Weather History Graph

Search for Another Location

Airport or City:

Trip Planner

Search our weather history database for the weather conditions in past years. The results will help you decide how hot, cold, wet, or windy it might be!

Date:

Astronomy

Oct. 20, 2013 Rise Set
Actual Time 7:10 AM CDT 6:03 PM CDT
Civil Twilight 6:42 AM CDT 6:31 PM CDT
Nautical Twilight 6:10 AM CDT 7:03 PM CDT
Astronomical Twilight 5:38 AM CDT 7:35 PM CDT
Moon 7:10 PM CDT (10/20) 8:49 AM CDT (10/20)
Length of Visible Light 11h 49m
Length of Day
10h 52m
Full, 97% of the Moon is Illuminated
Oct 20
Full
Oct 26
Last Quarter
Nov 3
New
Nov 9
First Quarter
Nov 17
Full

Hourly Weather History & Observations

Time (CDT) Temp. Windchill Dew Point Humidity Pressure Visibility Wind Dir Wind Speed Gust Speed Precip Events Conditions
12:15 AM 43.3 °F 40.7 °F 38.7 °F 84% 29.85 in 10.0 mi South 4.6 mph - N/A   Scattered Clouds
12:35 AM 43.0 °F 40.3 °F 38.1 °F 83% 29.85 in 10.0 mi SSW 4.6 mph - N/A   Clear
12:55 AM 42.4 °F 40.7 °F 37.6 °F 83% 29.85 in 10.0 mi SSW 3.5 mph - N/A   Clear
1:15 AM 41.4 °F 38.4 °F 37.0 °F 85% 29.84 in 10.0 mi SSW 4.6 mph - N/A   Clear
1:35 AM 41.2 °F 39.2 °F 37.0 °F 85% 29.85 in 10.0 mi SSW 3.5 mph - N/A   Clear
1:55 AM 41.7 °F - 37.2 °F 84% 29.85 in 10.0 mi Calm Calm - N/A   Clear
2:15 AM 39.2 °F - 36.1 °F 89% 29.85 in 10.0 mi Calm Calm - N/A   Clear
2:35 AM 38.5 °F - 35.8 °F 90% 29.85 in 10.0 mi Calm Calm - N/A   Clear
2:55 AM 36.1 °F - 34.7 °F 94% 29.84 in 10.0 mi Calm Calm - N/A   Clear
3:15 AM 36.3 °F - 35.4 °F 97% 29.85 in 7.0 mi Calm Calm - N/A   Clear
3:35 AM 35.2 °F - 34.2 °F 96% 29.84 in 10.0 mi Calm Calm - N/A   Clear
3:55 AM 34.0 °F - 32.9 °F 96% 29.84 in 3.0 mi Calm Calm - N/A   Clear
4:15 AM 34.3 °F - 33.4 °F 97% 29.84 in 0.8 mi Calm Calm - N/A   Overcast
4:35 AM 34.7 °F - 34.0 °F 97% 29.85 in 5.0 mi Calm Calm - N/A   Mostly Cloudy
4:55 AM 35.6 °F - 34.9 °F 97% 29.85 in 10.0 mi Calm Calm - N/A   Scattered Clouds
5:15 AM 39.0 °F - 37.6 °F 95% 29.85 in 10.0 mi Calm Calm - N/A   Scattered Clouds
5:35 AM 38.5 °F - 36.5 °F 93% 29.86 in 10.0 mi Calm Calm - N/A   Clear
5:55 AM 36.9 °F - 34.7 °F 92% 29.86 in 10.0 mi Calm Calm - N/A   Scattered Clouds
6:15 AM 35.2 °F - 34.0 °F 95% 29.86 in 5.0 mi Calm Calm - N/A   Scattered Clouds
6:35 AM 35.8 °F - 34.7 °F 96% 29.86 in 7.0 mi Calm Calm - N/A   Mostly Cloudy
6:55 AM 36.1 °F 33.5 °F 35.2 °F 97% 29.87 in 3.0 mi SW 3.5 mph - N/A   Scattered Clouds
7:15 AM 36.3 °F - 35.2 °F 96% 29.87 in 10.0 mi Calm Calm - N/A   Scattered Clouds
7:35 AM 34.7 °F - 33.6 °F 96% 29.88 in 5.0 mi Calm Calm - N/A   Scattered Clouds
7:55 AM 37.4 °F - 36.5 °F 97% 29.89 in 10.0 mi Calm Calm - N/A   Overcast
8:15 AM 39.2 °F - 38.1 °F 96% 29.90 in 10.0 mi Calm Calm - N/A   Overcast
8:35 AM 40.5 °F - 38.7 °F 93% 29.90 in 10.0 mi Calm Calm - N/A   Overcast
8:55 AM 42.1 °F - 39.7 °F 91% 29.90 in 10.0 mi Calm Calm - N/A   Mostly Cloudy
9:15 AM 43.9 °F 42.3 °F 39.9 °F 86% 29.89 in 10.0 mi South 3.5 mph - N/A   Scattered Clouds
9:35 AM 45.5 °F 44.2 °F 40.5 °F 83% 29.90 in 10.0 mi SSW 3.5 mph - N/A   Clear
9:55 AM 46.4 °F 44.3 °F 40.5 °F 80% 29.89 in 10.0 mi South 4.6 mph - N/A   Clear
10:15 AM 48.4 °F - 40.5 °F 74% 29.89 in 10.0 mi South 3.5 mph - N/A   Scattered Clouds
10:35 AM 47.7 °F - 41.0 °F 78% 29.89 in 10.0 mi South 3.5 mph - N/A   Clear
10:55 AM 49.1 °F - 40.6 °F 73% 29.88 in 10.0 mi SSW 3.5 mph - N/A   Scattered Clouds
11:15 AM 50.4 °F - 41.4 °F 71% 29.88 in 10.0 mi South 4.6 mph - N/A   Scattered Clouds
11:35 AM 52.0 °F - 41.7 °F 68% 29.88 in 10.0 mi SSE 4.6 mph - N/A   Scattered Clouds
11:55 AM 53.1 °F - 41.9 °F 66% 29.87 in 10.0 mi SSE 8.1 mph - N/A   Scattered Clouds
12:15 PM 54.1 °F - 41.5 °F 62% 29.86 in 10.0 mi SSE 8.1 mph - N/A   Scattered Clouds
12:35 PM 54.9 °F - 42.4 °F 63% 29.85 in 10.0 mi SSE 9.2 mph - N/A   Scattered Clouds
12:55 PM 55.0 °F - 41.7 °F 61% 29.84 in 10.0 mi South 6.9 mph - N/A   Scattered Clouds
1:15 PM 56.7 °F - 41.4 °F 57% 29.82 in 10.0 mi South 8.1 mph - N/A   Scattered Clouds
1:35 PM 57.4 °F - 41.5 °F 56% 29.81 in 10.0 mi South 6.9 mph - N/A   Scattered Clouds
1:55 PM 59.2 °F - 41.7 °F 52% 29.80 in 10.0 mi South 10.4 mph - N/A   Scattered Clouds
2:15 PM 59.4 °F - 42.4 °F 54% 29.79 in 10.0 mi South 11.5 mph - N/A   Scattered Clouds
2:35 PM 59.2 °F - 41.0 °F 51% 29.79 in 10.0 mi South 12.7 mph 18.4 mph N/A   Scattered Clouds
2:55 PM 59.4 °F - 41.7 °F 52% 29.78 in 10.0 mi South 10.4 mph - N/A   Scattered Clouds
3:15 PM 61.3 °F - 42.6 °F 50% 29.76 in 10.0 mi South 9.2 mph 16.1 mph N/A   Scattered Clouds
3:35 PM 61.7 °F - 42.3 °F 49% 29.76 in 10.0 mi South 8.1 mph - N/A   Scattered Clouds
3:55 PM 63.1 °F - 42.6 °F 47% 29.74 in 10.0 mi South 5.8 mph 9.2 mph N/A   Clear
4:15 PM 64.6 °F - 40.8 °F 42% 29.73 in 10.0 mi South 10.4 mph - N/A   Clear
4:35 PM 64.4 °F - 40.5 °F 41% 29.73 in 10.0 mi SSW 8.1 mph - N/A   Clear
4:55 PM 64.8 °F - 38.8 °F 38% 29.73 in 10.0 mi SSW 11.5 mph 18.4 mph N/A   Mostly Cloudy
5:15 PM 65.3 °F - 36.9 °F 35% 29.73 in 10.0 mi SSW 9.2 mph - N/A   Scattered Clouds
5:35 PM 64.8 °F - 37.4 °F 36% 29.74 in 10.0 mi SSW 10.4 mph - N/A   Mostly Cloudy
5:55 PM 65.1 °F - 37.8 °F 36% 29.74 in 10.0 mi SSW 8.1 mph 18.4 mph N/A   Overcast
6:15 PM 64.9 °F - 37.8 °F 37% 29.76 in 10.0 mi SSW 11.5 mph 19.6 mph N/A   Overcast
6:35 PM 64.6 °F - 38.5 °F 38% 29.76 in 10.0 mi SSW 9.2 mph 16.1 mph N/A Rain Light Rain
6:55 PM 64.0 °F - 38.7 °F 39% 29.76 in 10.0 mi SW 8.1 mph 16.1 mph N/A   Mostly Cloudy
7:15 PM 63.7 °F - 38.8 °F 40% 29.78 in 10.0 mi SW 8.1 mph - N/A   Overcast
7:35 PM 62.8 °F - 39.6 °F 42% 29.78 in 10.0 mi SSW 5.8 mph - N/A   Mostly Cloudy
7:55 PM 62.1 °F - 40.6 °F 45% 29.79 in 10.0 mi SW 11.5 mph - N/A Rain Light Rain
8:15 PM 60.8 °F - 42.6 °F 51% 29.79 in 10.0 mi SW 6.9 mph - N/A   Light Drizzle
8:35 PM 59.9 °F - 43.7 °F 55% 29.80 in 10.0 mi SW 4.6 mph - N/A Rain Rain
8:55 PM 58.6 °F - 45.5 °F 62% 29.81 in 10.0 mi WSW 5.8 mph - N/A Rain Light Rain
9:15 PM 57.6 °F - 46.2 °F 66% 29.82 in 10.0 mi WSW 5.8 mph - 0.01 in Rain Rain
9:35 PM 54.7 °F - 48.2 °F 79% 29.82 in 10.0 mi Calm Calm - 0.01 in Rain Light Rain
9:55 PM 53.2 °F - 49.3 °F 86% 29.82 in 10.0 mi Calm Calm - 0.01 in   Light Drizzle
10:15 PM 53.1 °F - 49.1 °F 86% 29.83 in 10.0 mi SW 3.5 mph - N/A   Light Drizzle
10:35 PM 54.7 °F - 47.7 °F 77% 29.82 in 10.0 mi SW 4.6 mph - 0.01 in Rain Light Rain
10:55 PM 56.1 °F - 46.0 °F 69% 29.82 in 10.0 mi SW 4.6 mph - 0.01 in Rain Light Rain
11:15 PM 54.7 °F - 46.8 °F 75% 29.82 in 10.0 mi SSW 3.5 mph - N/A   Light Drizzle
11:35 PM 54.1 °F - 47.1 °F 77% 29.83 in 10.0 mi SW 3.5 mph - N/A Rain Rain
11:55 PM 53.6 °F - 47.3 °F 79% 29.83 in 10.0 mi SW 4.6 mph - N/A   Overcast